User: anonymous   Login
Location: Montr�al
(45.5000°N, 73.5830°W)
Time: 22:58:59
(UTC-04:00)
Language:

Cosmos 1151 Rocket - Orbit

View from above orbital plane
View from above orbital plane
View from above satellite
View from above satellite

Ground track
Ground track

The orbit data is extracted from the following two-line orbital elements,

1 11672U 80005B   16238.87119069 +.00000118 +00000-0 +10172-4 0  9996
2 11672 082.5179 358.0933 0015899 213.0082 147.0144 14.87805994958367
Epoch (UTC): 25 August 2016 20:54:30
Eccentricity: 0.0015899
inclination: 82.5179°
perigee height: 593 km
apogee height: 616 km
right ascension of ascending node: 358.0933°
argument of perigee: 213.0082°
revolutions per day: 14.87805994
mean anomaly at epoch: 147.0144°
orbit number at epoch: 95836

The dashed part of the orbit path shows where the satellite is in the earth's shadow,  

DLR